Date String (YYYY-MM-DD hh:mm:ss) UTC,Instrument flags,absolute air pressure of the measurement (hPa),sample flow rate (lpm),inlet stack bypass flow (lpm),air temperature of the measurement (°C),ambient temperature measured by the external sensor (°C),aerosol sample conditioner tube jacket temperature (°C),OPC LED temperature (°C),internal box temperature (°C),relative humidity of the measurement (%),span deviation,mass concentration of particles derived from Lorenz-Mie calculation of OPC scattering (μg/m³),mass concentration of particles derived from Lorenz-Mie calculation of OPC scattering (μg/m³),mass concentration of particles derived from Lorenz-Mie calculation of OPC scattering (μg/m³)
DateTimeUTC,F1_M11,P_M11,Q1_M11,Q2_M11,T1_M11,T2_M11,T3_M11,T4_M11,T5_M11,U1_M11,ZSPAN_M11,X0_M11,X2_M11,X1_M11
2023-06-19 18:00:00,SystemResetWarning,0825.3,5.01,000.00,029.4,024.7,000.0,037.8,030.6,24.5,0000.0,0017.39,0005.90,0004.58
2023-06-19 18:01:00,SystemResetWarning,0825.3,5.00,000.00,029.3,025.1,000.0,037.8,030.4,22.4,0000.0,0016.73,0005.89,0004.57
2023-06-19 18:02:00,SystemResetWarning,0825.3,5.00,000.00,029.3,025.6,000.0,037.8,030.4,21.0,0000.0,0016.00,0005.76,0004.51
2023-06-19 18:03:00,SystemResetWarning,0825.3,5.00,000.00,029.3,026.0,000.0,037.8,030.5,22.4,0000.0,0016.51,0005.65,0004.45
2023-06-19 18:04:00,SystemResetWarning,0825.3,4.99,000.00,029.3,026.5,000.0,037.8,030.6,21.1,0000.0,0016.85,0005.52,0004.38
2023-06-19 18:05:00,SystemResetWarning,0825.3,5.00,000.00,029.3,026.8,000.0,037.8,030.7,21.3,0000.0,0017.24,0005.43,0004.32
2023-06-19 18:06:00,SystemResetWarning,0825.2,5.00,000.00,029.3,027.1,000.0,037.8,030.8,21.3,0000.0,0016.33,0005.40,0004.27
2023-06-19 18:07:00,SystemResetWarning,0825.2,5.00,000.00,029.4,027.4,000.0,037.8,030.8,22.9,0000.0,0015.32,0005.32,0004.21
2023-06-19 18:08:00,SystemResetWarning,0825.2,4.99,000.00,029.4,027.0,000.0,037.8,030.9,20.8,0000.0,0015.18,0005.28,0004.17
2023-06-19 18:09:00,SystemResetWarning,0825.2,4.99,000.00,029.4,025.2,000.0,037.7,030.8,19.5,0000.0,0014.93,0005.28,0004.15
2023-06-19 18:10:00,SystemResetWarning,0825.2,5.01,000.00,029.4,024.5,000.0,037.7,030.8,17.3,0000.0,0014.17,0005.26,0004.13
2023-06-19 18:11:00,SystemResetWarning,0825.2,5.01,000.00,029.3,024.8,000.0,037.7,030.6,16.5,0000.0,0013.20,0005.22,0004.10
2023-06-19 18:12:00,SystemResetWarning,0825.2,5.00,000.00,029.2,025.2,000.0,037.7,030.4,17.4,0000.0,0012.71,0005.13,0004.06
2023-06-19 18:13:00,SystemResetWarning,0825.2,5.00,000.00,029.2,025.7,000.0,037.7,030.4,17.6,0000.0,0013.01,0005.14,0004.02
2023-06-19 18:14:00,SystemResetWarning,0825.1,4.99,000.00,029.2,026.1,000.0,037.7,030.5,18.2,0000.0,0012.67,0005.11,0003.99
2023-06-19 18:15:00,SystemResetWarning,0825.1,5.00,000.00,029.2,026.6,000.0,037.7,030.6,20.1,0000.0,0012.52,0005.07,0003.97
2023-06-19 18:16:00,SystemResetWarning,0825.1,5.01,000.00,029.2,026.9,000.0,037.7,030.7,18.0,0000.0,0012.33,0005.03,0003.93
2023-06-19 18:17:00,SystemResetWarning,0825.1,4.99,000.00,029.2,027.2,000.0,037.7,030.8,17.9,0000.0,0013.24,0004.99,0003.90
2023-06-19 18:18:00,SystemResetWarning,0825.1,4.99,000.00,029.3,027.5,000.0,037.7,030.8,20.1,0000.0,0013.41,0004.94,0003.87
2023-06-19 18:19:00,SystemResetWarning,0825.1,4.99,000.00,029.3,027.3,000.0,037.7,030.9,20.3,0000.0,0013.29,0004.87,0003.84
2023-06-19 18:20:00,SystemResetWarning,0825.1,4.99,000.00,029.3,025.5,000.0,037.7,030.8,19.9,0000.0,0012.98,0004.76,0003.80
2023-06-19 18:21:00,SystemResetWarning,0825.1,5.01,000.00,029.3,024.3,000.0,037.6,030.7,17.5,0000.0,0013.37,0004.70,0003.76
2023-06-19 18:22:00,SystemResetWarning,0825.1,5.01,000.00,029.2,024.7,000.0,037.6,030.6,17.3,0000.0,0014.31,0004.63,0003.73
2023-06-19 18:23:00,SystemResetWarning,0825.1,4.99,000.00,029.1,025.1,000.0,037.6,030.3,18.1,0000.0,0013.85,0004.60,0003.71
2023-06-19 18:24:00,SystemResetWarning,0825.1,5.01,000.00,029.1,025.6,000.0,037.6,030.4,18.2,0000.0,0014.16,0004.58,0003.69
2023-06-19 18:25:00,SystemResetWarning,0825.1,4.99,000.00,029.1,026.1,000.0,037.6,030.5,19.1,0000.0,0014.34,0004.65,0003.67
2023-06-19 18:26:00,SystemResetWarning,0825.1,5.00,000.00,029.1,026.5,000.0,037.6,030.6,18.7,0000.0,0013.81,0004.64,0003.65
2023-06-19 18:27:00,SystemResetWarning,0825.1,4.99,000.00,029.1,026.9,000.0,037.6,030.6,19.3,0000.0,0013.98,0004.66,0003.64
2023-06-19 18:28:00,SystemResetWarning,0825.1,4.99,000.00,029.2,027.2,000.0,037.6,030.7,19.2,0000.0,0013.09,0004.61,0003.64
2023-06-19 18:29:00,SystemResetWarning,0825.1,5.00,000.00,029.2,027.4,000.0,037.7,030.8,19.2,0000.0,0013.36,0004.61,0003.64
2023-06-19 18:30:00,SystemResetWarning,0825.1,4.99,000.00,029.2,026.7,000.0,037.6,030.8,19.1,0000.0,0013.96,0004.69,0003.65
2023-06-19 18:31:00,SystemResetWarning,0825.1,5.00,000.00,029.2,024.8,000.0,037.6,030.7,18.7,0000.0,0014.13,0004.76,0003.66
2023-06-19 18:32:00,SystemResetWarning,0825.0,5.02,000.00,029.2,024.4,000.0,037.5,030.6,20.9,0000.0,0013.69,0004.82,0003.68
2023-06-19 18:33:00,SystemResetWarning,0825.0,5.01,000.00,029.1,024.9,000.0,037.5,030.4,20.5,0000.0,0013.01,0004.86,0003.70
2023-06-19 18:34:00,SystemResetWarning,0825.0,4.99,000.00,029.0,025.3,000.0,037.5,030.3,18.9,0000.0,0013.24,0004.94,0003.72
2023-06-19 18:35:00,SystemResetWarning,0825.0,5.00,000.00,029.0,025.8,000.0,037.5,030.4,19.1,0000.0,0012.62,0004.97,0003.76
2023-06-19 18:36:00,SystemResetWarning,0825.0,5.01,000.00,029.0,026.2,000.0,037.5,030.4,18.5,0000.0,0012.04,0004.93,0003.79
2023-06-19 18:37:00,SystemResetWarning,0825.0,4.99,000.00,029.0,026.6,000.0,037.6,030.5,19.4,0000.0,0012.15,0005.04,0003.83
2023-06-19 18:38:00,SystemResetWarning,0825.0,4.99,000.00,029.1,026.9,000.0,037.6,030.6,17.9,0000.0,0011.91,0005.06,0003.85
2023-06-19 18:39:00,SystemResetWarning,0825.0,5.02,000.00,029.1,027.2,000.0,037.6,030.7,19.0,0000.0,0011.69,0005.11,0003.87
2023-06-19 18:40:00,SystemResetWarning,0825.0,4.98,000.00,029.1,027.4,000.0,037.6,030.8,18.8,0000.0,0011.25,0005.13,0003.87
2023-06-19 18:41:00,SystemResetWarning,0825.0,4.99,000.00,029.2,026.0,000.0,037.5,030.8,16.0,0000.0,0011.43,0005.11,0003.87
2023-06-19 18:42:00,SystemResetWarning,0825.0,5.00,000.00,029.1,024.3,000.0,037.5,030.7,18.1,0000.0,0011.68,0005.10,0003.86
2023-06-19 18:43:00,SystemResetWarning,0825.0,5.02,000.00,029.1,024.5,000.0,037.4,030.7,19.5,0000.0,0012.08,0005.14,0003.84
2023-06-19 18:44:00,SystemResetWarning,0825.0,4.99,000.00,029.0,024.9,000.0,037.4,030.4,18.2,0000.0,0013.27,0005.17,0003.83
2023-06-19 18:45:00,SystemResetWarning,0825.0,5.00,000.00,029.0,025.4,000.0,037.5,030.3,19.8,0000.0,0014.67,0005.16,0003.83
2023-06-19 18:46:00,SystemResetWarning,0825.0,5.00,000.00,029.0,025.9,000.0,037.5,030.4,17.8,0000.0,0015.02,0005.14,0003.82
2023-06-19 18:47:00,SystemResetWarning,0825.0,4.99,000.00,029.0,026.3,000.0,037.5,030.5,18.2,0000.0,0015.81,0005.16,0003.82
2023-06-19 18:48:00,SystemResetWarning,0825.0,4.99,000.00,029.0,026.7,000.0,037.5,030.6,18.7,0000.0,0016.93,0005.05,0003.80
2023-06-19 18:49:00,SystemResetWarning,0825.0,5.00,000.00,029.0,027.0,000.0,037.5,030.6,20.0,0000.0,0017.57,0005.05,0003.80
2023-06-19 18:50:00,SystemResetWarning,0825.1,5.02,000.00,029.1,027.3,000.0,037.5,030.7,18.7,0000.0,0018.27,0005.03,0003.79
2023-06-19 18:51:00,SystemResetWarning,0825.1,4.99,000.00,029.1,027.5,000.0,037.5,030.8,17.7,0000.0,0018.10,0005.01,0003.79
2023-06-19 18:52:00,SystemResetWarning,0825.1,4.99,000.00,029.1,026.5,000.0,037.5,030.8,19.3,0000.0,0017.97,0005.01,0003.80
2023-06-19 18:53:00,SystemResetWarning,0825.0,5.00,000.00,029.1,024.5,000.0,037.4,030.7,18.6,0000.0,0017.95,0005.01,0003.81
2023-06-19 18:54:00,SystemResetWarning,0824.9,5.00,000.00,029.1,024.4,000.0,037.4,030.7,17.9,0000.0,0017.71,0004.97,0003.82
2023-06-19 18:55:00,SystemResetWarning,0824.9,5.01,000.00,029.0,024.9,000.0,037.4,030.5,19.2,0000.0,0017.23,0004.93,0003.83
2023-06-19 18:56:00,SystemResetWarning,0824.9,5.01,000.00,029.0,025.3,000.0,037.4,030.3,20.4,0000.0,0016.66,0004.94,0003.84
2023-06-19 18:57:00,SystemResetWarning,0824.9,5.00,000.00,028.9,025.8,000.0,037.4,030.4,17.8,0000.0,0016.52,0005.00,0003.86
2023-06-19 18:58:00,SystemResetWarning,0825.0,5.01,000.00,028.9,026.3,000.0,037.4,030.4,16.5,0000.0,0016.46,0004.97,0003.85
2023-06-19 18:59:00,SystemResetWarning,0825.0,4.99,000.00,029.0,026.6,000.0,037.5,030.5,16.1,0000.0,0015.63,0005.01,0003.84
